Benguela Stream — PENR — position and weather

sailwx.info

Track history (hours):
 
Tides and Currents Weather Stations Pressure Air Temp Water Temp Dewpoint Dewpoint Depression Visibility Wind Speed Wind Dir Waves Ship Positions

Benguela Stream

Last reported at 2014-Jul-24 00:00 UTC. Time now 2014-Jul-24 12:19 UTC.
Position N 49°12' W 005°54'.

Length 150 m; beam 13 m.

Type: Ship. MMSI: 244455000.

Wind from 010 at 11 knots

Waves 0.5 meters (2 feet), 3 second period

Barometer 1017.0 mb
Air temperature 20.0 ° C
Visibility: greater than 5.4 NM
Dewpoint 19.2 ° C
Water temperature 21.0 ° C

Date/timePositionNaut miles runAvg speedWind from/ knotsBaromVisibWave heightAir tempDewpointWater temp
2014-Jul-24 00:00N 49°12' W 005°54'20617.5 010 / 111017.0 5.4 0.520.019.221.0
2014-Jul-23 12:14N 49°43' W 000°41'1420.6
2014-Jul-23 11:33N 49°36' W 000°21'1716.8
2014-Jul-23 10:33N 49°30' E 000°02'5 4.6
2014-Jul-23 09:32N 49°28' E 000°09'0 0.0
2014-Jul-23 08:32N 49°28' E 000°09'0 0.0
2014-Jul-23 07:32N 49°28' E 000°09'0 0.0
2014-Jul-23 06:32N 49°28' E 000°09'0 0.0
2014-Jul-23 05:32N 49°28' E 000°09'0 0.0
2014-Jul-23 04:32N 49°28' E 000°09'0 0.0
2014-Jul-23 03:32N 49°28' E 000°09'0 0.0
2014-Jul-23 02:32N 49°28' E 000°09'0 0.0
2014-Jul-23 01:32N 49°28' E 000°09'0 0.0
2014-Jul-23 00:32N 49°28' E 000°09'0 0.0
2014-Jul-22 23:32N 49°28' E 000°09'1 1.1
2014-Jul-22 22:33N 49°28' E 000°08'9 8.7
2014-Jul-22 21:33N 49°31' W 000°05'1615.8
2014-Jul-22 20:32N 49°44' W 000°19'4420.0
2014-Jul-22 18:21N 50°23' W 000°50'1519.0
2014-Jul-22 17:33N 50°37' W 000°58'1010.3
2014-Jul-22 16:33N 50°46' W 001°05'2 2.3
2014-Jul-22 15:32N 50°49' W 001°05'0 0.0
2014-Jul-22 14:33N 50°49' W 001°05'0 0.0
2014-Jul-22 13:32N 50°49' W 001°05'0 0.0
2014-Jul-22 12:32N 50°49' W 001°05'0 0.0
2014-Jul-22 11:33N 50°49' W 001°05'0 0.0
2014-Jul-22 10:32N 50°49' W 001°05'0 0.0
2014-Jul-22 09:32N 50°49' W 001°05'0 0.0
2014-Jul-22 08:33N 50°49' W 001°05'0 0.0
2014-Jul-22 07:33N 50°49' W 001°05'0 0.0
2014-Jul-22 06:33N 50°49' W 001°05'0 0.0
2014-Jul-22 05:33N 50°49' W 001°05'0 0.0
2014-Jul-22 04:32N 50°49' W 001°05'0 0.0
2014-Jul-22 03:32N 50°49' W 001°05'0 0.0
2014-Jul-22 02:32N 50°49' W 001°05'0 0.0
2014-Jul-22 01:32N 50°49' W 001°05'0 0.0
2014-Jul-22 00:33N 50°49' W 001°05'0 0.0
2014-Jul-21 23:32N 50°49' W 001°05'0 0.0
2014-Jul-21 22:33N 50°49' W 001°05'0 0.0
2014-Jul-21 21:32N 50°49' W 001°05'0 0.0
2014-Jul-21 20:32N 50°49' W 001°05'0 0.0
2014-Jul-21 20:17N 50°49' W 001°05'0 0.0
2014-Jul-21 19:32N 50°49' W 001°05'0 0.0
2014-Jul-21 18:33N 50°49' W 001°05'0 0.0
2014-Jul-21 17:32N 50°49' W 001°05'0 0.0
2014-Jul-21 16:32N 50°49' W 001°05'0 0.0
2014-Jul-21 15:32N 50°49' W 001°05'0 0.0
2014-Jul-21 14:33N 50°49' W 001°05'0 0.0
2014-Jul-21 13:33N 50°49' W 001°05'0 0.0
2014-Jul-21 12:32N 50°49' W 001°05'0 0.0
2014-Jul-21 11:33N 50°49' W 001°05'0 0.0
2014-Jul-21 10:33N 50°49' W 001°05'0 0.0
2014-Jul-21 09:32N 50°49' W 001°05'0 0.0
2014-Jul-21 08:32N 50°49' W 001°05'0 0.0
2014-Jul-21 07:33N 50°49' W 001°05'0 0.0
2014-Jul-21 06:33N 50°49' W 001°05'0 0.0
2014-Jul-21 05:32N 50°49' W 001°05'0 0.0
2014-Jul-21 04:33N 50°49' W 001°05'0 0.0
2014-Jul-21 03:33N 50°49' W 001°05'0 0.0
2014-Jul-21 02:32N 50°49' W 001°05'0 0.0
2014-Jul-21 01:33N 50°49' W 001°05'0 0.0
2014-Jul-21 00:33N 50°49' W 001°05'0 0.0
2014-Jul-20 23:33N 50°49' W 001°05'0 0.0
2014-Jul-20 22:33N 50°49' W 001°05'0 0.0
2014-Jul-20 21:32N 50°49' W 001°05'3 3.6
2014-Jul-20 20:34N 50°45' W 001°05'1010.1
2014-Jul-20 19:34N 50°36' W 000°59'1515.0
2014-Jul-20 18:33N 50°27' W 001°19'1918.5
2014-Jul-20 17:33N 50°22' W 001°47'33619.1
2014-Jul-20 00:00N 49°18' W 010°18'22718.9 1010.510.8 17.516.718.0
2014-Jul-19 12:00N 48°42' W 016°00'45318.9 320 / 111010.210.8 1.017.312.817.4
2014-Jul-18 12:00N 46°30' W 026°42'22318.6 320 / 201015.810.8 2.015.810.117.4
2014-Jul-18 00:00N 45°12' W 031°42'44918.7 1019.710.8 16.510.317.2
2014-Jul-17 00:00N 41°48' W 040°54'12020.0 1021.510.8 22.520.222.0
2014-Jul-16 18:00N 40°48' W 043°12'10918.2 290 / 161023.3 5.4 0.524.522.325.6
2014-Jul-16 12:00N 39°48' W 045°12'11819.6 290 / 171024.8 5.4 1.026.522.123.6
2014-Jul-16 06:00N 38°42' W 047°18'10818.0 290 / 151025.8 5.4 0.525.022.026.5
2014-Jul-16 00:00N 37°42' W 049°12'9015.0 1028.210.8 24.923.324.5
2014-Jul-15 18:00N 36°48' W 050°42'10918.2 270 / 101027.7 5.4 0.527.021.026.0
2014-Jul-15 12:00N 35°42' W 052°30'11819.6 1028.010.8 26.319.725.8
2014-Jul-15 06:00N 34°30' W 054°24'11919.8 100 / 101027.3 5.4 0.526.520.527.4
2014-Jul-15 00:00N 33°12' W 056°12'10818.1 1026.410.8 26.721.526.0
2014-Jul-14 18:00N 32°06' W 057°54'11318.8 140 / 101025.8 5.4 0.529.022.427.6
2014-Jul-14 12:00N 30°54' W 059°36'11419.0 130 / 201024.710.8 2.026.822.426.0
2014-Jul-14 06:00N 29°36' W 061°12'12320.4 090 / 121022.3 5.4 0.526.522.127.0
2014-Jul-14 00:00N 28°12' W 062°54'   090 / 81021.510.8 0.526.522.126.0
Track history (hours):
 
Tides and Currents Weather Stations Pressure Air Temp Water Temp Dewpoint Dewpoint Depression Visibility Wind Speed Wind Dir Waves Ship Positions

Benguela Stream

Last reported at 2014-Jul-24 00:00 UTC. Time now 2014-Jul-24 12:19 UTC.
Position N 49°12' W 005°54'.

Length 150 m; beam 13 m.

Type: Ship. MMSI: 244455000.

Wind from 010 at 11 knots

Waves 0.5 meters (2 feet), 3 second period

Barometer 1017.0 mb
Air temperature 20.0 ° C
Visibility: greater than 5.4 NM
Dewpoint 19.2 ° C
Water temperature 21.0 ° C

Date/timePositionNaut miles runAvg speedWind from/ knotsBaromVisibWave heightAir tempDewpointWater temp
2014-Jul-24 00:00N 49°12' W 005°54'20617.5 010 / 111017.0 5.4 0.520.019.221.0
2014-Jul-23 12:14N 49°43' W 000°41'1420.6
2014-Jul-23 11:33N 49°36' W 000°21'1716.8
2014-Jul-23 10:33N 49°30' E 000°02'5 4.6
2014-Jul-23 09:32N 49°28' E 000°09'0 0.0
2014-Jul-23 08:32N 49°28' E 000°09'0 0.0
2014-Jul-23 07:32N 49°28' E 000°09'0 0.0
2014-Jul-23 06:32N 49°28' E 000°09'0 0.0
2014-Jul-23 05:32N 49°28' E 000°09'0 0.0
2014-Jul-23 04:32N 49°28' E 000°09'0 0.0
2014-Jul-23 03:32N 49°28' E 000°09'0 0.0
2014-Jul-23 02:32N 49°28' E 000°09'0 0.0
2014-Jul-23 01:32N 49°28' E 000°09'0 0.0
2014-Jul-23 00:32N 49°28' E 000°09'0 0.0
2014-Jul-22 23:32N 49°28' E 000°09'1 1.1
2014-Jul-22 22:33N 49°28' E 000°08'9 8.7
2014-Jul-22 21:33N 49°31' W 000°05'1615.8
2014-Jul-22 20:32N 49°44' W 000°19'4420.0
2014-Jul-22 18:21N 50°23' W 000°50'1519.0
2014-Jul-22 17:33N 50°37' W 000°58'1010.3
2014-Jul-22 16:33N 50°46' W 001°05'2 2.3
2014-Jul-22 15:32N 50°49' W 001°05'0 0.0
2014-Jul-22 14:33N 50°49' W 001°05'0 0.0
2014-Jul-22 13:32N 50°49' W 001°05'0 0.0
2014-Jul-22 12:32N 50°49' W 001°05'0 0.0
2014-Jul-22 11:33N 50°49' W 001°05'0 0.0
2014-Jul-22 10:32N 50°49' W 001°05'0 0.0
2014-Jul-22 09:32N 50°49' W 001°05'0 0.0
2014-Jul-22 08:33N 50°49' W 001°05'0 0.0
2014-Jul-22 07:33N 50°49' W 001°05'0 0.0
2014-Jul-22 06:33N 50°49' W 001°05'0 0.0
2014-Jul-22 05:33N 50°49' W 001°05'0 0.0
2014-Jul-22 04:32N 50°49' W 001°05'0 0.0
2014-Jul-22 03:32N 50°49' W 001°05'0 0.0
2014-Jul-22 02:32N 50°49' W 001°05'0 0.0
2014-Jul-22 01:32N 50°49' W 001°05'0 0.0
2014-Jul-22 00:33N 50°49' W 001°05'0 0.0
2014-Jul-21 23:32N 50°49' W 001°05'0 0.0
2014-Jul-21 22:33N 50°49' W 001°05'0 0.0
2014-Jul-21 21:32N 50°49' W 001°05'0 0.0
2014-Jul-21 20:32N 50°49' W 001°05'0 0.0
2014-Jul-21 20:17N 50°49' W 001°05'0 0.0
2014-Jul-21 19:32N 50°49' W 001°05'0 0.0
2014-Jul-21 18:33N 50°49' W 001°05'0 0.0
2014-Jul-21 17:32N 50°49' W 001°05'0 0.0
2014-Jul-21 16:32N 50°49' W 001°05'0 0.0
2014-Jul-21 15:32N 50°49' W 001°05'0 0.0
2014-Jul-21 14:33N 50°49' W 001°05'0 0.0
2014-Jul-21 13:33N 50°49' W 001°05'0 0.0
2014-Jul-21 12:32N 50°49' W 001°05'0 0.0
2014-Jul-21 11:33N 50°49' W 001°05'0 0.0
2014-Jul-21 10:33N 50°49' W 001°05'0 0.0
2014-Jul-21 09:32N 50°49' W 001°05'0 0.0
2014-Jul-21 08:32N 50°49' W 001°05'0 0.0
2014-Jul-21 07:33N 50°49' W 001°05'0 0.0
2014-Jul-21 06:33N 50°49' W 001°05'0 0.0
2014-Jul-21 05:32N 50°49' W 001°05'0 0.0
2014-Jul-21 04:33N 50°49' W 001°05'0 0.0
2014-Jul-21 03:33N 50°49' W 001°05'0 0.0
2014-Jul-21 02:32N 50°49' W 001°05'0 0.0
2014-Jul-21 01:33N 50°49' W 001°05'0 0.0
2014-Jul-21 00:33N 50°49' W 001°05'0 0.0
2014-Jul-20 23:33N 50°49' W 001°05'0 0.0
2014-Jul-20 22:33N 50°49' W 001°05'0 0.0
2014-Jul-20 21:32N 50°49' W 001°05'3 3.6
2014-Jul-20 20:34N 50°45' W 001°05'1010.1
2014-Jul-20 19:34N 50°36' W 000°59'1515.0
2014-Jul-20 18:33N 50°27' W 001°19'1918.5
2014-Jul-20 17:33N 50°22' W 001°47'33619.1
2014-Jul-20 00:00N 49°18' W 010°18'22718.9 1010.510.8 17.516.718.0
2014-Jul-19 12:00N 48°42' W 016°00'45318.9 320 / 111010.210.8 1.017.312.817.4
2014-Jul-18 12:00N 46°30' W 026°42'22318.6 320 / 201015.810.8 2.015.810.117.4
2014-Jul-18 00:00N 45°12' W 031°42'44918.7 1019.710.8 16.510.317.2
2014-Jul-17 00:00N 41°48' W 040°54'12020.0 1021.510.8 22.520.222.0
2014-Jul-16 18:00N 40°48' W 043°12'10918.2 290 / 161023.3 5.4 0.524.522.325.6
2014-Jul-16 12:00N 39°48' W 045°12'11819.6 290 / 171024.8 5.4 1.026.522.123.6
2014-Jul-16 06:00N 38°42' W 047°18'10818.0 290 / 151025.8 5.4 0.525.022.026.5
2014-Jul-16 00:00N 37°42' W 049°12'9015.0 1028.210.8 24.923.324.5
2014-Jul-15 18:00N 36°48' W 050°42'10918.2 270 / 101027.7 5.4 0.527.021.026.0
2014-Jul-15 12:00N 35°42' W 052°30'11819.6 1028.010.8 26.319.725.8
2014-Jul-15 06:00N 34°30' W 054°24'11919.8 100 / 101027.3 5.4 0.526.520.527.4
2014-Jul-15 00:00N 33°12' W 056°12'10818.1 1026.410.8 26.721.526.0
2014-Jul-14 18:00N 32°06' W 057°54'11318.8 140 / 101025.8 5.4 0.529.022.427.6
2014-Jul-14 12:00N 30°54' W 059°36'11419.0 130 / 201024.710.8 2.026.822.426.0
2014-Jul-14 06:00N 29°36' W 061°12'12320.4 090 / 121022.3 5.4 0.526.522.127.0
2014-Jul-14 00:00N 28°12' W 062°54'   090 / 81021.510.8 0.526.522.126.0

Dump ship's entire track history